sat.trackr.live / text

‹ back to catalog

STARLINK-32297

NORAD 61521 · 2024-183N

PAYLOAD ACTIVE UNKNOWN

§ Identity

Operator
Country
US
Launch date
2024-10-15
Launch site
AFETR
Launch vehicle
Mass (kg)
RCS (m²)

Purposes: comms

External: N2YO · Heavens-Above · Gunter

§ Orbital elements

Epoch: 2026-09-21T10:43:06.011040Z

Period
93.85 min
Inclination
53.1587°
Eccentricity
0.0001152
Mean motion
15.34393681 rev/d
Perigee alt
461.9 km
Apogee alt
463.5 km
Semi-major
6,840.9 km
B*
5.5038e-5
RAAN
311.0495°
Arg perigee
81.7834°
Mean anomaly
278.3299°
Rev number
10,965

§ Raw data

STARLINK-322971 61521U 24183N   26264.44659735  .00001483  00000+0  55038-4 0  99962 61521  53.1587 311.0495 0001152  81.7834 278.3299 15.34393681109653

JSON: /api/v1/satellites/61521 · /tle

For live sub-satellite position, see the globe view (requires WebGL).

§ Visibility from observer

Set your observer location to see the next 7 days of passes ≥ 10°. The values pass through the URL so the page stays shareable.

No JS? Fill the form by hand. The geolocation button needs JavaScript.